Flag for Netherlands Weather past 2 weeks in Dordrecht, Netherlands

Now
46 °F

Scattered clouds.


Feels Like: 39 °F
Forecast: 35 / 51 °F
Wind: 20 mph from West

Location: Rotterdam Zestienhoven Airport

Current Time: Mar 27, 2015 at 11:49:16 AM

Latest Report: Mar 27, 2015 at 10:55 AM


Visibility: N/A

Pressure: 30.04 "Hg

Humidity: 76%

Dew point: 39 °F

Location of DordrechtLocation

Historic Weather in Dordrecht — Graph

°F

Dordrecht temperature yesterday

Maximum temperature yesterday: 46 °F (at 8:25 PM)
Minimum temperature yesterday: 32 °F (at 3:55 AM)
Average temperature yesterday: 41 °F

Past Weeks' High & Low Weather Summary

 TemperatureHumidityPressure
High61 °F (Mar 17, 2:25 PM)100% (Mar 16, 7:25 AM)30.45 "Hg (Mar 16, 7:25 AM)
Low30 °F (Mar 23, 5:25 AM)44% (Mar 12, 1:55 PM)29.62 "Hg (Mar 26, 3:25 PM)
Average43 °F83%30.15 "Hg
* Reported Mar 12 10:25 AM — Mar 27 10:25 AM, Dordrecht, Weather by CustomWeather, © 2015

Note: Actual official high and low records may vary slightly from our data, if they occured in-between our weather recording intervals... More about our weather records

Advertising

Dordrecht weather history for previous 24 hours

 ConditionsComfort  
Time TempWeatherWind HumidityBarometerVisibility
10:25 AM
Fri, Mar 27
46 °FBroken clouds.21 mph76%30.01 "HgN/A
9:55 AM46 °FBroken clouds.18 mph76%30.01 "HgN/A
9:25 AM45 °FOvercast.16 mph81%30.01 "HgN/A
8:55 AM45 °FOvercast.16 mph76%29.98 "HgN/A
8:25 AM45 °FMostly cloudy.18 mph76%29.98 "HgN/A
7:55 AM45 °FOvercast.14 mph81%29.95 "HgN/A
7:25 AM43 °FPartly sunny.14 mph87%29.95 "HgN/A
6:55 AM43 °FBroken clouds.14 mph81%29.92 "HgN/A
6:25 AM43 °FQuite cool.15 mph81%29.92 "HgN/A
5:55 AM41 °FQuite cool.13 mph87%29.89 "HgN/A
5:25 AM43 °FClear.15 mph81%29.89 "HgN/A
4:55 AM43 °FClear.17 mph81%29.86 "HgN/A
3:55 AM43 °FClear.17 mph81%29.86 "HgN/A
3:25 AM45 °FClear.15 mph76%29.83 "HgN/A
2:55 AM43 °FClear.16 mph81%29.83 "HgN/A
2:25 AM43 °FClear.14 mph81%29.83 "HgN/A
1:55 AM45 °FClear.14 mph76%29.80 "HgN/A
1:25 AM45 °FPassing clouds.15 mph76%29.80 "HgN/A
12:55 AM45 °FPassing clouds.16 mph76%29.80 "HgN/A
12:25 AM45 °FPassing clouds.17 mph71%29.77 "HgN/A
11:55 PM
Thu, Mar 26
45 °FClear.16 mph76%29.77 "HgN/A
11:25 PM46 °FClear.15 mph71%29.74 "HgN/A
10:55 PM46 °FClear.15 mph71%29.74 "HgN/A
10:25 PM46 °FPassing clouds.14 mph71%29.74 "HgN/A
9:55 PM46 °FMostly cloudy.12 mph76%29.71 "HgN/A
9:25 PM46 °FPassing clouds.13 mph76%29.71 "HgN/A
8:55 PM46 °FPassing clouds.13 mph82%29.68 "HgN/A
8:25 PM46 °FPartly cloudy.9 mph87%29.68 "HgN/A
7:55 PM45 °FPassing clouds.9 mph93%29.68 "HgN/A
7:25 PM45 °FPassing clouds.10 mph93%29.65 "HgN/A
6:55 PM45 °FDrizzle. Broken clouds.12 mph93%29.65 "HgN/A
6:25 PM45 °FPartly sunny.12 mph93%29.62 "Hg6 mi
5:55 PM43 °FDrizzle. Broken clouds.13 mph93%29.62 "Hg3 mi
5:25 PM41 °FLight rain. Mostly cloudy.14 mph100%29.62 "Hg3 mi
4:55 PM41 °FLight rain. Partly sunny.16 mph93%29.62 "Hg2 mi
4:25 PM41 °FLight rain. Partly sunny.16 mph87%29.62 "Hg3 mi
3:55 PM41 °FSprinkles. Mostly cloudy.15 mph87%29.62 "Hg3 mi
3:25 PM41 °FLight rain. Partly sunny.16 mph87%29.62 "Hg4 mi
2:55 PM41 °FLight rain. Broken clouds.18 mph87%29.65 "Hg4 mi
2:25 PM41 °FLight rain. Broken clouds.20 mph87%29.65 "Hg4 mi
1:55 PM41 °FLight rain. More clouds than sun.17 mph87%29.65 "Hg6 mi
1:25 PM43 °FLight rain. Broken clouds.22 mph76%29.65 "Hg6 mi
12:55 PM45 °FBroken clouds.17 mph71%29.65 "HgN/A
12:25 PM45 °FPassing clouds.20 mph71%29.65 "HgN/A
11:55 AM45 °FPassing clouds.18 mph66%29.68 "HgN/A
11:25 AM43 °FScattered clouds.16 mph76%29.68 "HgN/A
Weather by CustomWeather, © 2015

See weather overviewHow to use our weather pages